Meteo pe oră la Teheran

Astăzi, 1 Octombrie, Joi

Timp Temperatura Precipitaţii Vânt Presiune Umiditate
00:00 +19°C° 0 mm 2 m/s 665 mmHg 24%
01:00 +19°C° 0 mm 1 m/s 665 mmHg 24%
02:00 +19°C° 0 mm 1 m/s 665 mmHg 25%
03:00 +18°C° 0 mm 1 m/s 665 mmHg 25%
04:00 +18°C° 0 mm 1 m/s 665 mmHg 26%
05:00 +18°C° 0 mm 1 m/s 665 mmHg 26%
06:00 +18°C° 0 mm 1 m/s 666 mmHg 26%
07:00 +19°C° 0 mm 1 m/s 666 mmHg 24%
08:00 +21°C° 0 mm 1 m/s 666 mmHg 22%
09:00 +22°C° 0 mm 1 m/s 667 mmHg 20%
10:00 +23°C° 0 mm 1 m/s 667 mmHg 19%
11:00 +24°C° 0 mm 2 m/s 667 mmHg 18%
12:00 +25°C° 0 mm 2 m/s 667 mmHg 17%
13:00 +25°C° 0 mm 2 m/s 666 mmHg 17%
14:00 +26°C° 0 mm 2 m/s 666 mmHg 17%
15:00 +27°C° 0 mm 2 m/s 666 mmHg 17%
16:00 +26°C° 0 mm 1 m/s 666 mmHg 19%
17:00 +25°C° 0 mm 1 m/s 666 mmHg 20%
18:00 +24°C° 0 mm 1 m/s 666 mmHg 21%
19:00 +24°C° 0 mm 1 m/s 666 mmHg 22%
20:00 +24°C° 0 mm 1 m/s 666 mmHg 22%
21:00 +23°C° 0 mm 1 m/s 666 mmHg 23%
22:00 +23°C° 0 mm 1 m/s 666 mmHg 23%
23:00 +22°C° 0 mm 1 m/s 666 mmHg 24%

Mâine, 2 Octombrie, Vineri

Timp Temperatura Precipitaţii Vânt Presiune Umiditate
00:00 +20°C° 0 mm 0 m/s 666 mmHg 25%
01:00 +20°C° 0 mm 0 m/s 666 mmHg 25%
02:00 +19°C° 0 mm 0 m/s 666 mmHg 26%
03:00 +19°C° 0 mm 0 m/s 666 mmHg 27%
04:00 +19°C° 0 mm 0 m/s 666 mmHg 28%
05:00 +21°C° 0 mm 1 m/s 666 mmHg 29%
06:00 +21°C° 0 mm 1 m/s 667 mmHg 30%
07:00 +22°C° 0 mm 1 m/s 667 mmHg 27%
08:00 +23°C° 0 mm 1 m/s 668 mmHg 24%
09:00 +25°C° 0 mm 1 m/s 668 mmHg 21%
10:00 +26°C° 0 mm 2 m/s 668 mmHg 20%
11:00 +27°C° 0 mm 2 m/s 668 mmHg 19%
12:00 +28°C° 0 mm 2 m/s 668 mmHg 18%
13:00 +28°C° 0 mm 2 m/s 668 mmHg 17%
14:00 +29°C° 0 mm 3 m/s 667 mmHg 17%
15:00 +30°C° 0 mm 4 m/s 667 mmHg 16%
16:00 +29°C° 0 mm 3 m/s 667 mmHg 18%
17:00 +29°C° 0 mm 3 m/s 667 mmHg 19%
18:00 +28°C° 0 mm 2 m/s 667 mmHg 20%
19:00 +27°C° 0 mm 2 m/s 667 mmHg 21%
20:00 +26°C° 0 mm 2 m/s 667 mmHg 22%
21:00 +25°C° 0 mm 1 m/s 667 mmHg 23%
22:00 +25°C° 0 mm 1 m/s 667 mmHg 24%
23:00 +24°C° 0 mm 1 m/s 667 mmHg 25%

Poimâine, 3 Octombrie, Sâmbătă

Timp Temperatura Precipitaţii Vânt Presiune Umiditate
00:00 +22°C° 0 mm 0 m/s 667 mmHg 26%
01:00 +21°C° 0 mm 0 m/s 667 mmHg 27%
02:00 +21°C° 0 mm 0 m/s 667 mmHg 28%
03:00 +23°C° 0 mm 1 m/s 667 mmHg 29%
04:00 +23°C° 0 mm 1 m/s 667 mmHg 30%
05:00 +22°C° 0 mm 1 m/s 667 mmHg 30%
06:00 +22°C° 0 mm 1 m/s 667 mmHg 31%
07:00 +24°C° 0 mm 1 m/s 667 mmHg 28%
08:00 +25°C° 0 mm 2 m/s 668 mmHg 25%
09:00 +26°C° 0 mm 2 m/s 668 mmHg 22%
10:00 +27°C° 0 mm 2 m/s 668 mmHg 21%
11:00 +28°C° 0 mm 2 m/s 668 mmHg 20%
12:00 +29°C° 0 mm 2 m/s 668 mmHg 19%
13:00 +29°C° 0 mm 2 m/s 668 mmHg 18%
14:00 +30°C° 0 mm 2 m/s 668 mmHg 18%
15:00 +30°C° 0 mm 3 m/s 668 mmHg 17%
16:00 +30°C° 0 mm 2 m/s 668 mmHg 18%
17:00 +29°C° 0 mm 1 m/s 668 mmHg 19%
18:00 +28°C° 0 mm 1 m/s 668 mmHg 20%
19:00 +27°C° 0 mm 1 m/s 668 mmHg 22%
20:00 +27°C° 0 mm 1 m/s 668 mmHg 24%
21:00 +26°C° 0 mm 1 m/s 669 mmHg 27%
22:00 +26°C° 0 mm 1 m/s 669 mmHg 28%
23:00 +25°C° 0 mm 1 m/s 669 mmHg 29%

4 Octombrie, Duminică

Timp Temperatura Precipitaţii Vânt Presiune Umiditate
00:00 +25°C° 0 mm 1 m/s 669 mmHg 31%
01:00 +25°C° 0 mm 1 m/s 669 mmHg 32%
02:00 +24°C° 0 mm 1 m/s 669 mmHg 33%
03:00 +24°C° 0 mm 1 m/s 668 mmHg 34%
04:00 +23°C° 0 mm 1 m/s 669 mmHg 35%
05:00 +23°C° 0 mm 1 m/s 669 mmHg 36%
06:00 +20°C° 0 mm 0 m/s 669 mmHg 37%
07:00 +23°C° 0 mm 1 m/s 669 mmHg 34%
08:00 +24°C° 0 mm 2 m/s 669 mmHg 30%
09:00 +26°C° 0 mm 2 m/s 670 mmHg 27%
10:00 +26°C° 0 mm 3 m/s 669 mmHg 25%
11:00 +27°C° 0 mm 3 m/s 669 mmHg 23%
12:00 +28°C° 0 mm 3 m/s 669 mmHg 21%
13:00 +29°C° 0 mm 3 m/s 669 mmHg 20%
14:00 +29°C° 0 mm 3 m/s 668 mmHg 19%
15:00 +30°C° 0 mm 2 m/s 668 mmHg 18%
16:00 +29°C° 0 mm 3 m/s 668 mmHg 19%
17:00 +28°C° 0 mm 3 m/s 668 mmHg 20%
18:00 +27°C° 0 mm 3 m/s 668 mmHg 21%
19:00 +27°C° 0 mm 3 m/s 668 mmHg 22%
20:00 +27°C° 0 mm 2 m/s 668 mmHg 23%
21:00 +26°C° 0 mm 2 m/s 669 mmHg 23%
22:00 +26°C° 0 mm 2 m/s 668 mmHg 26%
23:00 +25°C° 0 mm 2 m/s 668 mmHg 28%

5 Octombrie, Luni

Timp Temperatura Precipitaţii Vânt Presiune Umiditate
00:00 +24°C° 0 mm 2 m/s 668 mmHg 30%
01:00 +24°C° 0.1 mm 2 m/s 668 mmHg 32%
02:00 +24°C° 0.1 mm 3 m/s 668 mmHg 33%
03:00 +24°C° 0.1 mm 3 m/s 667 mmHg 35%
04:00 +23°C° 0 mm 2 m/s 667 mmHg 36%
05:00 +23°C° 0 mm 1 m/s 667 mmHg 36%
06:00 +23°C° 0 mm 1 m/s 667 mmHg 36%
07:00 +24°C° 0 mm 1 m/s 667 mmHg 34%
08:00 +25°C° 0 mm 2 m/s 667 mmHg 32%
09:00 +26°C° 0 mm 2 m/s 668 mmHg 30%
10:00 +26°C° 0.1 mm 2 m/s 667 mmHg 28%
11:00 +27°C° 0.1 mm 2 m/s 667 mmHg 27%
12:00 +27°C° 0.1 mm 2 m/s 667 mmHg 26%
13:00 +27°C° 0 mm 2 m/s 667 mmHg 26%
14:00 +27°C° 0 mm 2 m/s 667 mmHg 27%
15:00 +26°C° 0 mm 2 m/s 667 mmHg 27%
16:00 +26°C° 0.1 mm 1 m/s 667 mmHg 30%
17:00 +25°C° 0.1 mm 1 m/s 667 mmHg 32%
18:00 +24°C° 0.1 mm 1 m/s 667 mmHg 34%
19:00 +24°C° 0 mm 1 m/s 667 mmHg 36%
20:00 +23°C° 0 mm 1 m/s 667 mmHg 37%
21:00 +23°C° 0 mm 1 m/s 667 mmHg 38%
22:00 +23°C° 0 mm 1 m/s 666 mmHg 38%
23:00 +22°C° 0 mm 1 m/s 666 mmHg 39%

6 Octombrie, Marţi

Timp Temperatura Precipitaţii Vânt Presiune Umiditate
00:00 +22°C° 0 mm 1 m/s 666 mmHg 40%
01:00 +21°C° 0 mm 2 m/s 666 mmHg 42%
02:00 +20°C° 0 mm 2 m/s 666 mmHg 44%
03:00 +20°C° 0 mm 2 m/s 666 mmHg 46%
04:00 +20°C° 0 mm 2 m/s 666 mmHg 47%
05:00 +20°C° 0 mm 2 m/s 666 mmHg 47%
06:00 +19°C° 0 mm 2 m/s 666 mmHg 48%
07:00 +21°C° 0 mm 2 m/s 667 mmHg 44%
08:00 +23°C° 0 mm 2 m/s 667 mmHg 40%
09:00 +24°C° 0 mm 3 m/s 667 mmHg 36%
10:00 +25°C° 0 mm 3 m/s 667 mmHg 34%
11:00 +26°C° 0 mm 3 m/s 667 mmHg 31%
12:00 +27°C° 0 mm 3 m/s 667 mmHg 28%
13:00 +27°C° 0 mm 2 m/s 667 mmHg 27%
14:00 +27°C° 0 mm 2 m/s 667 mmHg 25%
15:00 +28°C° 0 mm 2 m/s 666 mmHg 23%
16:00 +27°C° 0 mm 2 m/s 666 mmHg 25%
17:00 +27°C° 0 mm 3 m/s 667 mmHg 27%
18:00 +26°C° 0 mm 3 m/s 667 mmHg 29%
19:00 +25°C° 0.2 mm 3 m/s 667 mmHg 33%
20:00 +24°C° 0.2 mm 3 m/s 667 mmHg 38%
21:00 +23°C° 0.2 mm 2 m/s 667 mmHg 42%
22:00 +23°C° 0.3 mm 2 m/s 667 mmHg 43%
23:00 +21°C° 0.3 mm 2 m/s 667 mmHg 44%
Arată mai mult

We Need Your Consent

Meteoprog and our Service Providers may store and access personal data such as cookies, device identifiers or other similar technologies on your device and process such data to personalise content and ads, as well as provide social media features and to analyse the traffic.

  • Store and/or access information on your device

    Cookies, device identifiers or other information can be stored or accessed on your device for the purposes indicated above.

  • Personalised ads and content, ad and content measurement, audience insights, and products development

    Ads and content can be personalised based on a profile. More data can be added to better personalise ads and content. Ad and content performance can be measured. Insights about the audience who saw the ads and content can be derived. Such data can be used to develop or improve user’s experience, systems and software.

By clicking ‘I Agree’ you will allow the use of indicated cookies, device identifiers, web beacons or other similar technologies. Your settings can be changed in the browser on your device.

For certain purposes, legitimate interests may be relied on, rather than consent. You can read more about this in our Privacy and Cookie Policy.